SCP
0 0 0 0 0 0 0 0 0 0 0 0 0 0 0 0 0 0 0 0 0 0
0 0 0 0 0 0 0 0 0 0 0 0 0 0 0 0 0 0 0 0 0 -0
0 0 0 0 0 0 0 0 0 0 0 0 0 0 0 0 0 0 0 0 0 0
0 0 0 0 0 0 0 0 0 0 0 0 0 0 0 0 0 0 0 -0 0 0
0 0 0 0 0 0 0 0 0 0 0 0 0 0 0 0 0 0 0 -0 -0 0
0 0 0 0 0 0 0 0 0 0 0 0 0 0 0 0 0 0 0 0 -0 -0
0 0 0 0 0 0 0 0 0 0 0 0 0 0 0 0 0 0 0 0 -0 -0
0 0 0 0 0 0 0 0 0 -0 -0 -0 0 0 0 0 0 0 0 0 -0 -0
0 0 0 0 0 0 0 0 0 -0 -0 -0 -0 0 -0 0 0 0 0 0 0 0
0 0 -0 0 0 0 0 0 0 0 -0 -0 -0 -0 -0 -0 0 0 0 0 0 0
-0 -0 -0 -0 -0 0 0 0 0 0 0 -0 -0 -0 -0 0 0 0 0 0 0 0
-0 -0 -0 -0 -0 0 0 0 0 0 0 -0 -0 0 -0 -0 0 0 0 0 0 0
-0 -0 -0 -0 -0 -0 0 0 0 0 0 0 -0 0 -0 -0 0 0 0 0 0 0
-0 -0 -0 -0 0 -0 0 0 0 0 0 0 0 -0 0 -0 0 0 0 0 0 0
Wind_Speed_500mb
31 30 28 25 23 20 19 18 20 22 23 22 17 17 17 17 17 14 20 17 16 20
34 30 31 28 25 22 20 17 19 18 15 13 14 13 15 21 24 23 22 17 17 19
35 29 26 27 24 20 16 14 14 16 12 11 9 10 16 22 21 22 17 16 18 19
33 28 24 20 19 17 15 16 16 13 10 6 5 10 15 21 20 16 14 15 11 12
26 21 18 16 17 20 22 19 18 13 8 2 10 17 16 17 19 26 21 17 13 16
26 20 19 19 17 24 22 21 15 8 5 9 12 11 8 13 22 27 32 29 16 18
24 18 18 18 20 25 23 18 12 8 7 9 10 8 14 19 16 20 30 25 19 18
21 17 18 17 23 32 21 14 10 4 6 10 11 11 8 7 5 5 8 14 16 15
21 15 22 27 30 24 17 14 10 3 7 10 13 11 12 7 8 13 15 12 11 16
18 17 27 30 26 21 18 16 12 4 7 10 14 13 13 12 15 19 17 12 8 9
14 22 29 35 27 23 20 17 11 2 5 9 13 13 14 16 19 21 17 14 10 15
19 23 28 38 28 25 20 19 11 3 4 5 10 14 16 15 16 20 23 20 27 28
16 20 23 33 30 23 21 16 11 6 1 4 7 12 14 15 14 25 28 30 32 29
22 21 20 23 25 22 21 20 15 9 5 2 5 9 14 14 13 23 34 38 38 37
Wind_Direction_500mb
171 174 173 177 177 181 195 204 215 232 250 251 227 232 234 230 238 248 251 239 233 231
166 168 167 175 182 186 190 207 233 236 214 206 222 228 239 245 255 259 244 239 235 234
159 164 170 173 181 192 206 214 199 184 187 196 217 240 248 251 246 250 238 239 235 236
155 158 165 180 191 195 178 173 164 156 164 184 239 279 274 252 240 233 225 234 235 222
157 163 168 169 168 161 162 158 146 136 115 344 300 292 276 252 235 221 215 228 248 237
145 144 152 149 149 158 160 154 142 125 58 348 327 311 294 260 249 241 243 224 226 226
142 145 152 154 158 160 153 147 138 94 15 358 346 329 306 294 276 250 252 205 210 208
152 150 154 148 157 154 151 146 149 100 39 11 10 347 340 36 46 128 142 173 189 197
166 165 163 155 152 152 154 153 158 97 51 29 24 30 36 72 84 107 125 140 155 179
182 183 170 173 167 173 170 163 167 76 63 41 36 53 41 75 94 116 108 115 139 139
176 169 171 171 167 174 181 172 179 82 79 52 48 64 69 79 95 105 104 102 104 135
171 175 179 178 175 178 180 174 187 155 84 69 61 77 90 84 99 100 97 93 106 106
172 170 179 184 187 185 191 194 193 187 99 100 83 86 101 89 90 109 107 101 108 102
170 158 158 169 185 191 193 198 202 202 189 125 121 112 116 96 84 120 126 125 124 110
Wind_Speed_850mb
31 30 28 25 23 20 19 18 20 22 23 22 17 17 17 17 17 14 20 17 16 20
34 30 31 28 25 22 20 17 19 18 15 13 14 13 15 21 24 23 22 17 17 19
35 29 26 27 24 20 16 14 14 16 12 11 9 10 16 22 21 22 17 16 18 19
33 28 24 20 19 17 15 16 16 13 10 6 5 10 15 21 20 16 14 15 11 12
26 21 18 16 17 20 22 19 18 13 8 2 10 17 16 17 19 26 21 17 13 16
26 20 19 19 17 24 22 21 15 8 5 9 12 11 8 13 22 27 32 29 16 18
24 18 18 18 20 25 23 18 12 8 7 9 10 8 14 19 16 20 30 25 19 18
21 17 18 17 23 32 21 14 10 4 6 10 11 11 8 7 5 5 8 14 16 15
21 15 22 27 30 24 17 14 10 3 7 10 13 11 12 7 8 13 15 12 11 16
18 17 27 30 26 21 18 16 12 4 7 10 14 13 13 12 15 19 17 12 8 9
14 22 29 35 27 23 20 17 11 2 5 9 13 13 14 16 19 21 17 14 10 15
19 23 28 38 28 25 20 19 11 3 4 5 10 14 16 15 16 20 23 20 27 28
16 20 23 33 30 23 21 16 11 6 1 4 7 12 14 15 14 25 28 30 32 29
22 21 20 23 25 22 21 20 15 9 5 2 5 9 14 14 13 23 34 38 38 37
Wind_Direction_850mb
171 174 173 177 177 181 195 204 215 232 250 251 227 232 234 230 238 248 251 239 233 231
166 168 167 175 182 186 190 207 233 236 214 206 222 228 239 245 255 259 244 239 235 234
159 164 170 173 181 192 206 214 199 184 187 196 217 240 248 251 246 250 238 239 235 236
155 158 165 180 191 195 178 173 164 156 164 184 239 279 274 252 240 233 225 234 235 222
157 163 168 169 168 161 162 158 146 136 115 344 300 292 276 252 235 221 215 228 248 237
145 144 152 149 149 158 160 154 142 125 58 348 327 311 294 260 249 241 243 224 226 226
142 145 152 154 158 160 153 147 138 94 15 358 346 329 306 294 276 250 252 205 210 208
152 150 154 148 157 154 151 146 149 100 39 11 10 347 340 36 46 128 142 173 189 197
166 165 163 155 152 152 154 153 158 97 51 29 24 30 36 72 84 107 125 140 155 179
182 183 170 173 167 173 170 163 167 76 63 41 36 53 41 75 94 116 108 115 139 139
176 169 171 171 167 174 181 172 179 82 79 52 48 64 69 79 95 105 104 102 104 135
171 175 179 178 175 178 180 174 187 155 84 69 61 77 90 84 99 100 97 93 106 106
172 170 179 184 187 185 191 194 193 187 99 100 83 86 101 89 90 109 107 101 108 102
170 158 158 169 185 191 193 198 202 202 189 125 121 112 116 96 84 120 126 125 124 110